User: anonymous   Login
Location: Peterborough
(44.3091°N, 78.3197°W)
Time: 05:35:23
(UTC-04:00)
Language:

Transit 4A - Orbit

View from above orbital plane
View from above orbital plane
View from above satellite
View from above satellite

Ground track
Ground track

The orbit data is extracted from the following two-line orbital elements,

1 00116U 61015A   23091.85644945  .00000122  00000-0  15238-3 0  9998
2 00116  66.8089 238.4486 0074519   9.9606 350.2930 13.91900721133527
Epoch (UTC): 01 April 2023 20:33:17
Eccentricity: 0.0074519
inclination: 66.8089°
perigee height: 867 km
apogee height: 976 km
right ascension of ascending node: 238.4486°
argument of perigee: 9.9606°
revolutions per day: 13.91900721
mean anomaly at epoch: 350.2930°
orbit number at epoch: 13352

The dashed part of the orbit path shows where the satellite is in the earth's shadow,  

DLR